|
NORAD ID: 17270 Int'l Code: 1986-101E
Perigee: 935.8 km
Apogee: 937.3 km
Inclination: 82.4 °
Period: 103.6 minutes
Semi major axis: 7307 km
Launch date: December 18, 1986
Source: Commonwealth of Independent States (former USSR) (CIS)
Note: This is SATELLITE DEBRIS
Two Line Element Set (TLE):
1 17270U 86101E 13164.49667863 .00000238 00000-0 18215-3 0 9967
2 17270 082.4351 331.0374 0001025 321.1138 072.6753 13.89767024340194
Source:
NASA's NSSDC Master Catalog entry for SL-14 DEB
|